N420VF KBOI-KSLC

Flight info

Callsign N420VF
Flight time 0h 46m
Altitude 29000
Route ROARR BYI SKEES6
Aircraft HDJT/L-SDFGIRWY/LB1

Departure

Time 2026-05-07 04:47
Airport Boise Air Terminal/Gowen Field (KBOI)

Arrival

Time 2026-05-07 05:33
Airport Salt Lake City International Airport (KSLC)
Time Latitude Longitude Altitude Speed Heading
2026-05-07 04:18 43.57041 -116.22441 2876 ft 0 kts 220°
2026-05-07 04:39 43.57039 -116.22444 2876 ft 2 kts 217°
2026-05-07 04:40 43.57022 -116.22470 2876 ft 3 kts 276°
2026-05-07 04:40 43.57026 -116.22507 2876 ft 4 kts 269°
2026-05-07 04:40 43.57015 -116.22558 2876 ft 6 kts 265°
2026-05-07 04:40 43.57018 -116.22620 2876 ft 7 kts 273°
2026-05-07 04:41 43.57021 -116.22685 2876 ft 7 kts 273°
2026-05-07 04:41 43.57023 -116.22753 2876 ft 7 kts 273°
2026-05-07 04:41 43.57026 -116.22824 2876 ft 7 kts 274°
2026-05-07 04:41 43.57032 -116.22895 2876 ft 7 kts 278°
2026-05-07 04:42 43.57035 -116.22966 2876 ft 7 kts 274°
2026-05-07 04:42 43.57036 -116.23038 2876 ft 7 kts 254°
2026-05-07 04:42 43.56996 -116.23069 2876 ft 7 kts 190°
2026-05-07 04:42 43.56947 -116.23082 2875 ft 7 kts 218°
2026-05-07 04:43 43.56954 -116.23140 2875 ft 7 kts 296°
2026-05-07 04:43 43.56979 -116.23212 2875 ft 9 kts 294°
2026-05-07 04:43 43.57008 -116.23300 2875 ft 11 kts 294°
2026-05-07 04:43 43.57041 -116.23398 2876 ft 12 kts 296°
2026-05-07 04:44 43.57078 -116.23505 2876 ft 13 kts 296°
2026-05-07 04:44 43.57114 -116.23614 2876 ft 9 kts 282°
2026-05-07 04:44 43.57115 -116.23633 2876 ft 2 kts 265°
2026-05-07 04:44 43.57110 -116.23714 2877 ft 15 kts 263°
2026-05-07 04:45 43.57094 -116.23873 2876 ft 17 kts 262°
2026-05-07 04:45 43.57071 -116.24028 2876 ft 15 kts 255°
2026-05-07 04:45 43.57054 -116.24116 2877 ft 1 kts 255°
2026-05-07 04:46 43.57045 -116.24158 2877 ft 9 kts 248°
2026-05-07 04:46 43.56996 -116.24201 2877 ft 9 kts 163°
2026-05-07 04:46 43.56965 -116.24151 2877 ft 0 kts 115°
2026-05-07 04:46 43.56965 -116.24150 2877 ft 4 kts 115°
2026-05-07 04:47 43.56828 -116.23746 2879 ft 91 kts 115°
2026-05-07 04:47 43.56462 -116.22682 3064 ft 139 kts 116°
2026-05-07 04:47 43.56030 -116.21359 3572 ft 159 kts 113°
2026-05-07 04:47 43.55583 -116.19944 4371 ft 164 kts 113°
2026-05-07 04:48 43.55106 -116.18501 5097 ft 167 kts 114°
2026-05-07 04:48 43.54631 -116.17006 5769 ft 175 kts 114°
2026-05-07 04:48 43.54144 -116.15439 6533 ft 183 kts 114°
2026-05-07 04:48 43.53604 -116.13715 7000 ft 209 kts 114°
2026-05-07 04:49 43.53019 -116.11846 7801 ft 214 kts 113°
2026-05-07 04:49 43.52421 -116.09942 8663 ft 219 kts 113°
2026-05-07 04:49 43.51809 -116.07990 9532 ft 225 kts 112°
2026-05-07 04:49 43.51182 -116.05995 10384 ft 229 kts 112°
2026-05-07 04:50 43.50532 -116.03931 11012 ft 230 kts 113°
2026-05-07 04:50 43.50113 -116.02599 11410 ft 232 kts 113°
2026-05-07 04:50 43.49459 -116.00518 12021 ft 240 kts 113°
2026-05-07 04:50 43.48790 -115.98391 12647 ft 244 kts 114°
2026-05-07 04:51 43.48106 -115.96229 13286 ft 248 kts 114°
2026-05-07 04:51 43.47413 -115.94032 13918 ft 252 kts 114°
2026-05-07 04:51 43.46479 -115.91070 14696 ft 257 kts 114°
2026-05-07 04:51 43.45760 -115.88797 15298 ft 261 kts 113°
2026-05-07 04:52 43.45027 -115.86485 15901 ft 266 kts 113°
2026-05-07 04:52 43.44283 -115.84134 16530 ft 272 kts 113°
2026-05-07 04:52 43.43763 -115.82494 16959 ft 281 kts 112°
2026-05-07 04:52 43.42955 -115.79946 17478 ft 299 kts 112°
2026-05-07 04:53 43.42101 -115.77254 17995 ft 315 kts 112°
2026-05-07 04:53 43.41213 -115.74440 18500 ft 326 kts 112°
2026-05-07 04:53 43.40284 -115.71540 18976 ft 336 kts 112°
2026-05-07 04:53 43.39351 -115.68629 19444 ft 338 kts 112°
2026-05-07 04:54 43.38396 -115.65625 19907 ft 349 kts 112°
2026-05-07 04:54 43.37415 -115.62541 20411 ft 357 kts 112°
2026-05-07 04:54 43.36405 -115.59386 20906 ft 364 kts 112°
2026-05-07 04:54 43.35383 -115.56199 21415 ft 366 kts 112°
2026-05-07 04:55 43.34355 -115.52987 21936 ft 366 kts 112°
2026-05-07 04:55 43.33321 -115.49757 22461 ft 372 kts 113°
2026-05-07 04:55 43.32274 -115.46500 23001 ft 374 kts 112°
2026-05-07 04:55 43.31215 -115.43218 23543 ft 377 kts 112°
2026-05-07 04:56 43.30151 -115.39914 24000 ft 380 kts 112°
2026-05-07 04:56 43.29035 -115.36612 24458 ft 383 kts 118°
2026-05-07 04:56 43.27607 -115.33518 24924 ft 386 kts 122°
2026-05-07 04:56 43.26159 -115.30413 25392 ft 387 kts 121°
2026-05-07 04:57 43.24725 -115.27273 25874 ft 389 kts 121°
2026-05-07 04:57 43.23272 -115.24115 26365 ft 394 kts 121°
2026-05-07 04:57 43.21781 -115.20917 26768 ft 401 kts 121°
2026-05-07 04:57 43.20261 -115.17654 27034 ft 410 kts 121°
2026-05-07 04:58 43.18723 -115.14337 27439 ft 413 kts 121°
2026-05-07 04:58 43.17179 -115.11012 27916 ft 415 kts 121°
2026-05-07 04:58 43.15621 -115.07671 28316 ft 417 kts 121°
2026-05-07 04:58 43.14074 -115.04358 28710 ft 420 kts 120°
2026-05-07 04:59 43.12476 -115.00933 29032 ft 423 kts 120°
2026-05-07 04:59 43.10875 -114.97501 29041 ft 433 kts 120°
2026-05-07 04:59 43.07586 -114.90479 29062 ft 449 kts 121°
2026-05-07 05:00 43.04171 -114.83202 29082 ft 459 kts 121°
2026-05-07 05:00 43.00734 -114.75902 29107 ft 454 kts 120°
2026-05-07 05:01 42.97308 -114.68632 29101 ft 455 kts 120°
2026-05-07 05:01 42.93873 -114.61370 29087 ft 455 kts 120°
2026-05-07 05:02 42.90434 -114.54112 29076 ft 455 kts 121°
2026-05-07 05:02 42.86984 -114.46852 29071 ft 456 kts 120°
2026-05-07 05:03 42.83535 -114.39609 29077 ft 456 kts 120°
2026-05-07 05:03 42.80078 -114.32371 29028 ft 456 kts 120°
2026-05-07 05:04 42.76619 -114.25140 29028 ft 456 kts 121°
2026-05-07 05:04 42.73161 -114.17936 29021 ft 453 kts 120°
2026-05-07 05:05 42.69714 -114.10765 29033 ft 453 kts 120°
2026-05-07 05:05 42.66282 -114.03648 29046 ft 453 kts 120°
2026-05-07 05:06 42.62822 -113.96487 29057 ft 453 kts 121°
2026-05-07 05:06 42.59359 -113.89339 29073 ft 453 kts 121°
2026-05-07 05:07 42.55282 -113.82808 29078 ft 456 kts 134°
2026-05-07 05:07 42.50710 -113.76825 29088 ft 457 kts 133°
2026-05-07 05:08 42.46219 -113.70716 29079 ft 457 kts 134°
2026-05-07 05:08 42.41668 -113.64692 29072 ft 457 kts 134°
2026-05-07 05:09 42.37150 -113.58634 29061 ft 457 kts 134°
2026-05-07 05:09 42.32608 -113.52611 29054 ft 457 kts 134°
2026-05-07 05:10 42.28073 -113.46579 29047 ft 457 kts 134°
2026-05-07 05:10 42.23531 -113.40570 29061 ft 458 kts 134°
2026-05-07 05:11 42.18982 -113.34554 29067 ft 458 kts 134°
2026-05-07 05:11 42.14438 -113.28562 29060 ft 456 kts 134°
2026-05-07 05:12 42.09901 -113.22587 29073 ft 456 kts 134°
2026-05-07 05:12 42.05360 -113.16625 29076 ft 456 kts 134°
2026-05-07 05:13 42.00822 -113.10677 29071 ft 455 kts 134°
2026-05-07 05:13 41.96277 -113.04731 29092 ft 456 kts 134°
2026-05-07 05:14 41.91727 -112.98793 29087 ft 456 kts 134°
2026-05-07 05:14 41.87179 -112.92868 28448 ft 453 kts 134°
2026-05-07 05:15 41.84961 -112.89986 27873 ft 447 kts 134°
2026-05-07 05:15 41.82741 -112.87101 27288 ft 443 kts 134°
2026-05-07 05:15 41.80539 -112.84242 26709 ft 439 kts 135°
2026-05-07 05:15 41.78355 -112.81411 26123 ft 435 kts 135°
2026-05-07 05:16 41.76188 -112.78605 25562 ft 431 kts 135°
2026-05-07 05:16 41.74055 -112.75846 24996 ft 421 kts 135°
2026-05-07 05:16 41.71965 -112.73142 24433 ft 416 kts 135°
2026-05-07 05:16 41.69895 -112.70469 23904 ft 411 kts 135°
2026-05-07 05:17 41.67844 -112.67827 23318 ft 408 kts 135°
2026-05-07 05:17 41.65806 -112.65209 22772 ft 405 kts 135°
2026-05-07 05:17 41.63788 -112.62598 22239 ft 402 kts 135°
2026-05-07 05:17 41.61781 -112.60009 21704 ft 400 kts 135°
2026-05-07 05:18 41.59781 -112.57447 21181 ft 397 kts 135°
2026-05-07 05:18 41.57796 -112.54893 20665 ft 395 kts 135°
2026-05-07 05:18 41.55822 -112.52357 20128 ft 392 kts 135°
2026-05-07 05:18 41.53864 -112.49850 19636 ft 389 kts 134°
2026-05-07 05:19 41.51870 -112.47425 19133 ft 387 kts 137°
2026-05-07 05:19 41.49842 -112.45075 18644 ft 385 kts 137°
2026-05-07 05:19 41.47840 -112.42733 18068 ft 381 kts 137°
2026-05-07 05:19 41.45863 -112.40416 17395 ft 375 kts 137°
2026-05-07 05:20 41.43952 -112.38098 16893 ft 370 kts 132°
2026-05-07 05:20 41.42206 -112.35602 16406 ft 366 kts 131°
2026-05-07 05:20 41.40481 -112.33134 15934 ft 362 kts 131°
2026-05-07 05:20 41.38789 -112.30746 15480 ft 357 kts 132°
2026-05-07 05:21 41.37094 -112.28356 15020 ft 353 kts 132°
2026-05-07 05:21 41.33764 -112.23639 14114 ft 346 kts 132°
2026-05-07 05:21 41.32123 -112.21323 13643 ft 343 kts 132°
2026-05-07 05:22 41.30495 -112.19026 13191 ft 340 kts 133°
2026-05-07 05:22 41.28899 -112.16776 12756 ft 327 kts 133°
2026-05-07 05:22 41.27355 -112.14600 12338 ft 322 kts 133°
2026-05-07 05:22 41.25821 -112.12439 11930 ft 321 kts 133°
2026-05-07 05:23 41.24287 -112.10281 11500 ft 320 kts 133°
2026-05-07 05:23 41.22766 -112.08141 11085 ft 317 kts 134°
2026-05-07 05:23 41.21188 -112.06118 10996 ft 315 kts 138°
2026-05-07 05:23 41.19585 -112.04129 10996 ft 311 kts 137°
2026-05-07 05:24 41.18084 -112.02239 10992 ft 284 kts 137°
2026-05-07 05:24 41.16700 -112.00507 10986 ft 264 kts 137°
2026-05-07 05:24 41.15389 -111.98875 11000 ft 255 kts 137°
2026-05-07 05:24 41.14022 -111.97365 11003 ft 256 kts 150°
2026-05-07 05:25 41.12390 -111.96445 10814 ft 255 kts 169°
2026-05-07 05:25 41.10662 -111.96199 10490 ft 247 kts 185°
2026-05-07 05:25 41.08962 -111.96222 10148 ft 236 kts 184°
2026-05-07 05:25 41.07406 -111.96211 9806 ft 212 kts 184°
2026-05-07 05:26 41.05926 -111.96209 9501 ft 211 kts 184°
2026-05-07 05:26 41.04502 -111.96211 9210 ft 204 kts 184°
2026-05-07 05:26 41.03169 -111.96208 8935 ft 182 kts 184°
2026-05-07 05:26 41.01901 -111.96210 8667 ft 179 kts 182°
2026-05-07 05:27 41.00729 -111.96208 8421 ft 159 kts 184°
2026-05-07 05:27 40.99638 -111.96208 8202 ft 158 kts 186°
2026-05-07 05:27 40.98529 -111.96213 7963 ft 161 kts 182°
2026-05-07 05:27 40.97435 -111.96208 7734 ft 156 kts 183°
2026-05-07 05:28 40.96349 -111.96211 7486 ft 158 kts 182°
2026-05-07 05:28 40.95256 -111.96211 7231 ft 155 kts 180°
2026-05-07 05:28 40.94196 -111.96210 7032 ft 150 kts 181°
2026-05-07 05:28 40.93185 -111.96211 6852 ft 145 kts 180°
2026-05-07 05:29 40.92201 -111.96211 6680 ft 138 kts 179°
2026-05-07 05:29 40.91258 -111.96210 6509 ft 133 kts 178°
2026-05-07 05:29 40.90346 -111.96210 6335 ft 130 kts 177°
2026-05-07 05:29 40.89445 -111.96210 6170 ft 130 kts 177°
2026-05-07 05:30 40.88545 -111.96209 6002 ft 128 kts 178°
2026-05-07 05:30 40.87662 -111.96209 5835 ft 128 kts 179°
2026-05-07 05:30 40.86766 -111.96209 5654 ft 129 kts 179°
2026-05-07 05:30 40.85891 -111.96209 5485 ft 120 kts 179°
2026-05-07 05:31 40.85065 -111.96210 5330 ft 119 kts 179°
2026-05-07 05:31 40.84237 -111.96210 5166 ft 117 kts 177°
2026-05-07 05:31 40.83429 -111.96209 4998 ft 116 kts 178°
2026-05-07 05:31 40.82639 -111.96210 4833 ft 110 kts 177°
2026-05-07 05:32 40.81873 -111.96210 4684 ft 112 kts 179°
2026-05-07 05:32 40.81105 -111.96208 4525 ft 109 kts 176°
2026-05-07 05:32 40.80368 -111.96210 4373 ft 103 kts 177°
2026-05-07 05:32 40.79683 -111.96208 4239 ft 94 kts 177°
2026-05-07 05:33 40.79115 -111.96206 4226 ft 68 kts 180°
2026-05-07 05:33 40.78699 -111.96208 4227 ft 54 kts 180°
2026-05-07 05:33 40.78349 -111.96208 4224 ft 47 kts 180°
2026-05-07 05:33 40.78243 -111.96147 4224 ft 13 kts 92°
2026-05-07 05:34 40.78242 -111.96035 4225 ft 11 kts 95°
2026-05-07 05:34 40.78192 -111.96002 4225 ft 9 kts 179°
2026-05-07 05:34 40.78119 -111.96001 4225 ft 12 kts 180°
2026-05-07 05:34 40.78021 -111.96002 4259 ft 16 kts 180°
2026-05-07 05:35 40.77902 -111.96004 4257 ft 18 kts 181°
2026-05-07 05:35 40.77805 -111.96064 4257 ft 15 kts 182°
2026-05-07 05:35 40.77695 -111.96064 4257 ft 17 kts 180°
2026-05-07 05:35 40.77580 -111.96063 4259 ft 16 kts 181°
2026-05-07 05:36 40.77468 -111.96065 4256 ft 16 kts 180°
2026-05-07 05:36 40.77420 -111.96005 4256 ft 11 kts 89°
2026-05-07 05:36 40.77420 -111.95885 4256 ft 15 kts 90°
2026-05-07 05:36 40.77420 -111.95748 4256 ft 14 kts 90°
2026-05-07 05:37 40.77400 -111.95670 4256 ft 8 kts 180°
2026-05-07 05:37 40.77345 -111.95671 4256 ft 5 kts 196°
2026-05-07 05:37 40.77339 -111.95697 4256 ft 3 kts 269°
2026-05-07 05:37 40.77339 -111.95702 4256 ft 0 kts 269°